This demonstration page uses our WeatherBlox Daily Observations layout. Learn more.

Left ArrowRight Arrow

30.00354, -91.81873

Hourly Observations for July 9, 2022

Temp ( °F °C ) Dew Point ( °F °C ) Humidity (%) Winds ( mph kmh ) Pressure ( in mb ) Visibility ( mi km ) Precip ( " mm )
12:53 am 00:53 Clear 80 26.7 77 25 90 90 Calm 30.04 1017 10 16 0.00 0.00
1:53 am 01:53 Clear 79 26.1 76 24.4 90 90 WSW 5 7 30.03 1017 10 16 0.00 0.00
2:53 am 02:53 Clear 79 26.1 76 24.4 90 90 SW 3 6 30.02 1017 10 16 0.00 0.00
3:53 am 03:53 Clear 79 26.1 76 24.4 90 90 Calm 30.02 1017 10 16 0.00 0.00
4:53 am 04:53 Clear 79 26.1 75 23.9 88 88 WSW 3 6 30.02 1017 10 16 0.00 0.00
5:53 am 05:53 Clear 78 25.6 75 23.9 90 90 Calm 30.04 1017 10 16 0.00 0.00
6:53 am 06:53 Sunny 79 26.1 76 24.4 90 90 Calm 30.04 1017 10 16 0.00 0.00
7:53 am 07:53 Sunny 83 28.3 78 25.6 85 85 WSW 5 7 30.06 1018 10 16 0.00 0.00
8:53 am 08:53 Sunny 86 30 77 25 75 75 W 7 11 30.07 1018 10 16 0.00 0.00
9:53 am 09:53 Mostly Sunny 88 31.1 77 25 70 70 W 9 15 30.08 1019 10 16 0.00 0.00
10:53 am 10:53 Mostly Sunny 90 32.2 77 25 66 66 W 7 11 30.07 1018 10 16 0.00 0.00
11:53 am 11:53 Mostly Sunny 92 33.3 76 24.4 60 60 VRB 3 6 30.06 1018 10 16 0.00 0.00
12:53 pm 12:53 Mostly Cloudy 92 33.3 76 24.4 60 60 W 9 15 30.05 1018 10 16 0.00 0.00
1:53 pm 13:53 Partly Cloudy 93 33.9 76 24.4 58 58 W 7 11 30.03 1017 10 16 0.00 0.00
2:53 pm 14:53 Partly Cloudy 93 33.9 75 23.9 56 56 WNW 7 11 30.01 1016 10 16 0.00 0.00
3:53 pm 15:53 Sunny 96 35.6 74 23.3 49 49 W 7 11 29.99 1016 10 16 0.00 0.00
4:53 pm 16:53 Mostly Sunny 95 35 75 23.9 53 53 WSW 7 11 29.97 1015 10 16 0.00 0.00
5:53 pm 17:53 Mostly Sunny 93 33.9 76 24.4 58 58 WSW 9 15 29.95 1014 10 16 0.00 0.00
6:53 pm 18:53 Sunny 92 33.3 76 24.4 60 60 SW 8 13 29.95 1014 10 16 0.00 0.00
7:53 pm 19:53 Sunny 89 31.7 77 25 68 68 SW 8 13 29.96 1015 10 16 0.00 0.00
8:53 pm 20:53 Clear 86 30 77 25 75 75 SW 7 11 29.97 1015 10 16 0.00 0.00
9:53 pm 21:53 Clear 84 28.9 77 25 80 80 SW 6 9 29.98 1015 10 16 0.00 0.00
10:53 pm 22:53 Clear 83 28.3 77 25 82 82 SW 6 9 29.98 1015 10 16 0.00 0.00
11:53 pm 23:53 Clear 81 27.2 77 25 88 88 SW 5 7 29.98 1015 10 16 0.00 0.00

Powered by AerisWeather